Location: Hilton Head Island
(32.2163°N, 80.7526°W)
Time: 15:17:48
(UTC-04:00)

Tiros 1 despin weight - Pass Details

Date: 24 February 2026
Orbit: 556 x 593 km, 48.2° (Epoch: 10 March)

Event Time Altitude Azimuth Distance (km) Brightness Sun altitude
Rises 18:50:33 0° 312° (NW) 2,731 ? -7.9°
Reaches altitude 10° 18:52:50 10° 316° (NW) 1,834 ? -8.4°
Maximum altitude 18:56:58 61° 37° (NE) 633 ? -9.3°
Drops below altitude 10° 19:01:06 10° 118° (ESE) 1,833 ? -10.1°
Enters shadow 19:01:16 - 119° (ESE) 1,897 ? -10.2°
Sets 19:03:23 0° 122° (ESE) 2,730 - -10.6°
